FW1564 Weather Reports


Display with metric or nautical units.
time (UTC)temp
F
wind
direction
speed
MPH
gust
MPH
rain 1hr
in
rain 24hr
in
rain mn
in
humidity
%
barometer
mb
20260901133345 76 167 3.0 7.0 0.00 0.00 0.00 78 1022.4
20260901132346 76 104 3.0 9.0 0.00 0.00 0.00 78 1022.5
20260901131343 75 163 4.0 7.0 0.00 0.00 0.00 79 1022.4
20260901130342 75 129 6.0 9.0 0.00 0.00 0.00 79 1022.5
20260901125343 77 90 4.0 8.0 0.00 0.00 0.00 76 1022.4
20260901124343 75 183 4.0 10.0 0.00 0.00 0.00 79 1022.7
20260901123336 77 167 4.0 9.0 0.00 0.00 0.00 78 1022.5
20260901122336 75 102 2.0 7.0 0.00 0.00 0.00 80 1022.5
20260901121337 75 135 5.0 9.0 0.00 0.00 0.00 80 1022.4
20260901120824 75 131 4.0 7.0 0.00 0.00 0.00 81 1022.7
20260901115822 77 155 2.0 9.0 0.00 0.00 0.00 78 1022.7
20260901114336 75 137 2.0 9.0 0.00 0.00 0.00 78 1022.8
20260901113336 75 141 2.0 7.0 0.00 0.00 0.00 79 1022.7
20260901112336 75 152 4.0 6.0 0.00 0.00 0.00 80 1022.8
20260901111336 76 161 3.0 8.0 0.00 0.00 0.00 77 1022.9
20260901110337 76 162 3.0 8.0 0.00 0.00 0.00 77 1022.7
20260901105337 76 199 3.0 8.0 0.00 0.00 0.00 77 1022.7
20260901105329 76 115 3.0 9.0 0.00 0.00 0.00 77 1022.5
20260901103336 76 163 1.0 7.0 0.00 0.00 0.00 75 1022.6
20260901102336 76 136 6.0 8.0 0.00 0.00 0.00 76 1022.5
20260901101336 75 121 1.0 7.0 0.00 0.00 0.00 76 1022.3
20260901100335 74 124 1.0 6.0 0.00 0.00 0.00 78 1022.2
20260901095320 74 169 4.0 7.0 0.00 0.00 0.00 77 1022.2
20260901094319 74 175 4.0 4.0 0.00 0.00 0.00 77 1022.2
20260901093319 74 115 2.0 4.0 0.00 0.00 0.00 76 1022.0
20260901092757 73 79 0.0 2.0 0.00 0.00 0.00 73 1022.0
20260901091320 72 4 1.0 2.0 0.00 0.00 0.00 72 1021.9
20260901090305 73 357 0.0 2.0 0.00 0.00 0.00 70 1022.0
20260901085738 72 140 1.0 2.0 0.00 0.00 0.00 69 1021.8
20260901084748 71 41 1.0 3.0 0.00 0.00 0.00 69 1022.0
20260901083748 70 16 0.0 4.0 0.00 0.00 0.00 64 1022.0
20260901082306 69 10 2.0 3.0 0.00 0.00 0.00 62 1021.9
20260901081306 69 7 2.0 6.0 0.00 0.00 0.00 64 1022.0
20260901080735 68 351 4.0 6.0 0.00 0.00 0.00 63 1022.0
20260901075307 68 10 3.0 4.0 0.00 0.00 0.00 64 1021.9
20260901074304 67 312 2.0 6.0 0.00 0.00 0.00 64 1022.0
20260901073305 67 340 3.0 4.0 0.00 0.00 0.00 63 1021.9
20260901072258 66 328 3.0 4.0 0.00 0.00 0.00 65 1021.7
20260901071258 66 344 1.0 3.0 0.00 0.00 0.00 64 1021.7
20260901070259 66 330 3.0 3.0 0.00 0.00 0.00 63 1021.7
20260901065258 66 340 2.0 6.0 0.00 0.00 0.00 62 1021.2
20260901064258 67 340 2.0 3.0 0.00 0.00 0.00 66 1021.1
20260901063259 66 334 1.0 3.0 0.00 0.00 0.00 67 1021.2
20260901062258 66 349 2.0 2.0 0.00 0.00 0.00 64 1021.1
20260901061259 66 334 1.0 4.0 0.00 0.00 0.00 63 1020.8
20260901060743 66 345 1.0 2.0 0.00 0.00 0.00 65 1020.7
20260901055256 66 338 2.0 3.0 0.00 0.00 0.00 66 1020.9
20260901053256 66 346 1.0 2.0 0.00 0.00 0.00 65 1020.5
20260901052255 66 316 1.0 2.0 0.00 0.00 0.00 64 1020.7
20260901051743 67 313 0.0 2.0 0.00 0.00 0.00 63 1020.8
20260901050308 67 332 0.0 3.0 0.00 0.00 0.00 62 1020.9
20260901045730 66 4 2.0 3.0 0.00 0.00 0.00 66 1020.8
20260901044251 66 351 2.0 3.0 0.00 0.00 0.00 63 1020.8
20260901043725 67 342 2.0 3.0 0.00 0.00 0.00 61 1020.7
20260901042250 67 339 1.0 4.0 0.00 0.00 0.00 62 1020.9
20260901041252 66 352 2.0 3.0 0.00 0.00 0.00 63 1021.2
20260901040249 67 342 2.0 3.0 0.00 0.00 0.00 62 1021.1
20260901035250 66 332 1.0 3.0 0.00 0.00 0.00 64 1021.0
20260901034251 67 342 1.0 6.0 0.00 0.00 0.00 62 1021.0
20260901033737 67 348 4.0 4.0 0.00 0.00 0.00 63 1021.2
20260901032249 66 339 1.0 3.0 0.00 0.00 0.00 65 1021.1
20260901031251 66 339 3.0 4.0 0.00 0.00 0.00 66 1021.1
20260901030249 67 342 1.0 3.0 0.00 0.00 0.00 68 1021.6
20260901025249 66 353 1.0 3.0 0.00 0.00 0.00 69 1021.6
20260901024251 66 9 1.0 3.0 0.00 0.00 0.00 70 1021.7
20260901023730 66 340 2.0 3.0 0.00 0.00 0.00 72 1021.5
20260901022249 67 332 2.0 3.0 0.00 0.00 0.00 69 1021.8
20260901021250 66 338 1.0 3.0 0.00 0.00 0.00 69 1021.9
20260901020249 66 7 3.0 4.0 0.00 0.00 0.00 67 1021.9
20260901015244 66 345 4.0 4.0 0.00 0.00 0.00 67 1022.0
20260901014746 67 343 2.0 3.0 0.00 0.00 0.00 67 1022.0
20260901013245 66 340 1.0 2.0 0.00 0.00 0.00 69 1021.9
20260901012257 67 332 2.0 4.0 0.00 0.00 0.00 66 1022.0
20260901011246 67 345 3.0 4.0 0.00 0.00 0.00 65 1022.2
20260901010245 67 338 2.0 3.0 0.00 0.00 0.00 69 1022.1
20260901005723 67 334 2.0 3.0 0.00 0.00 0.00 63 1022.3
20260901004242 67 359 3.0 4.0 0.00 0.00 0.00 63 1022.5
20260901003717 67 339 2.0 3.0 0.00 0.00 0.00 64 1022.7
20260901002243 67 342 1.0 3.0 0.00 0.00 0.00 64 1022.5
20260901001242 66 349 2.0 6.0 0.00 0.00 0.00 69 1022.5
20260901000242 67 350 2.0 4.0 0.00 0.00 0.00 70 1022.5
20260831235241 67 354 1.0 4.0 0.00 0.00 0.00 72 1022.6
20260831234242 67 332 3.0 4.0 0.00 0.00 0.00 70 1022.6
20260831233239 67 334 1.0 4.0 0.00 0.00 0.00 67 1022.5
20260831232239 67 333 2.0 4.0 0.00 0.00 0.00 69 1022.6
20260831231231 67 347 1.0 4.0 0.00 0.00 0.00 70 1022.7
20260831230239 67 337 1.0 7.0 0.00 0.00 0.00 69 1022.4
20260831225232 67 340 3.0 4.0 0.00 0.00 0.00 71 1022.4
20260831224233 67 341 2.0 4.0 0.00 0.00 0.00 75 1022.6
20260831223232 66 342 2.0 3.0 0.00 0.00 0.00 76 1022.5
20260831222232 67 339 3.0 6.0 0.00 0.00 0.00 77 1022.9
20260831221233 67 8 4.0 6.0 0.00 0.00 0.00 76 1022.8
20260831220232 67 336 2.0 3.0 0.00 0.00 0.00 79 1022.5
20260831215712 67 340 2.0 4.0 0.00 0.00 0.00 79 1022.6
20260831214705 67 345 2.0 4.0 0.00 0.00 0.00 79 1022.9
20260831213233 67 339 2.0 3.0 0.00 0.00 0.00 77 1022.7
20260831212232 67 353 2.0 3.0 0.00 0.00 0.00 78 1022.4
20260831211231 67 345 2.0 3.0 0.00 0.00 0.00 79 1022.2
20260831210709 67 340 2.0 3.0 0.00 0.00 0.00 81 1022.2
20260831205232 68 339 2.0 4.0 0.00 0.00 0.00 82 1022.0
20260831204233 68 333 4.0 4.0 0.00 0.00 0.00 82 1022.0
20260831204207 67 345 2.0 3.0 0.00 0.00 0.00 84 1021.9
20260831202225 67 336 2.0 3.0 0.00 0.00 0.00 84 1021.6
20260831201225 68 346 1.0 3.0 0.00 0.00 0.00 85 1021.8
20260831200225 68 341 2.0 3.0 0.00 0.00 0.00 86 1021.7
20260831195707 69 327 0.0 1.0 0.00 0.00 0.00 87 1021.6
20260831194225 69 327 0.0 1.0 0.00 0.00 0.00 87 1021.3
20260831193226 70 203 0.0 0.0 0.00 0.00 0.00 86 1021.1
20260831192226 70 240 0.0 2.0 0.00 0.00 0.00 86 1021.1
20260831191225 71 120 2.0 2.0 0.00 0.00 0.00 85 1020.9
20260831190225 71 200 1.0 3.0 0.00 0.00 0.00 85 1021.2
20260831185225 71 111 0.0 3.0 0.00 0.00 0.00 84 1021.2
20260831184226 71 94 2.0 6.0 0.00 0.00 0.00 84 1021.0
20260831183700 71 112 2.0 3.0 0.00 0.00 0.00 84 1021.0
20260831182222 71 134 3.0 6.0 0.00 0.00 0.00 83 1021.1
20260831181221 72 133 2.0 4.0 0.00 0.00 0.00 83 1021.1
20260831180220 72 146 2.0 4.0 0.00 0.00 0.00 82 1020.7
20260831175657 72 210 2.0 4.0 0.00 0.00 0.00 82 1020.8
20260831174220 73 160 1.0 3.0 0.00 0.00 0.00 81 1020.7
20260831173220 73 95 3.0 6.0 0.00 0.00 0.00 80 1020.7
20260831172219 73 135 3.0 6.0 0.00 0.00 0.00 79 1020.9
20260831171221 73 131 4.0 6.0 0.00 0.00 0.00 79 1020.8
20260831170221 74 136 4.0 6.0 0.00 0.00 0.00 78 1021.0
20260831165655 76 118 3.0 7.0 0.00 0.00 0.00 74 1020.9
20260831164221 75 209 0.0 7.0 0.00 0.00 0.00 74 1020.7
20260831163657 76 113 5.0 7.0 0.00 0.00 0.00 72 1020.8
20260831162222 76 131 4.0 9.0 0.00 0.00 0.00 73 1020.7
20260831161220 76 105 2.0 8.0 0.00 0.00 0.00 71 1020.9
20260831160221 76 145 6.0 10.0 0.00 0.00 0.00 73 1021.0
20260831155211 76 190 5.0 10.0 0.00 0.00 0.00 72 1020.8
20260831154211 76 146 3.0 9.0 0.00 0.00 0.00 72 1020.9
20260831153659 77 148 4.0 9.0 0.00 0.00 0.00 70 1021.0
20260831152211 77 131 4.0 10.0 0.00 0.00 0.00 69 1020.9
20260831151211 77 162 3.0 10.0 0.00 0.00 0.00 68 1021.2
20260831150211 78 81 4.0 9.0 0.00 0.00 0.00 68 1021.3
20260831145211 76 170 5.0 10.0 0.00 0.00 0.00 69 1021.2
20260831144645 77 160 3.0 9.0 0.00 0.00 0.00 70 1021.2
20260831143152 76 144 5.0 9.0 0.00 0.00 0.00 71 1021.5
20260831142157 77 71 3.0 8.0 0.00 0.00 0.00 70 1021.2
20260831141152 76 164 3.0 11.0 0.00 0.00 0.00 72 1021.5
20260831140152 76 129 4.0 10.0 0.00 0.00 0.00 73 1021.5
20260831135152 76 128 6.0 10.0 0.00 0.00 0.00 71 1021.7
20260831134152 76 136 3.0 7.0 0.00 0.00 0.00 71 1021.6
20260831134117 76 196 7.0 11.0 0.00 0.00 0.00 70 1021.7